Location: Albany
(35.0000°S, 118.0000°E)
Time: 11:52:03
(UTC-04:00)

JAS-1B - Visible Passes

Search period start: 30 September 2014 00:00
Search period end: 10 October 2014 00:00
Orbit: 911 x 1745 km, 99.1° (Epoch: 29 September)

Date Brightness Start Highest point End Pass type
(mag) Time Alt. Az. Time Alt. Az. Time Alt. Az.
30 Sep 10.0 11:12:55 11° SE 11:13:09 11° SE 11:14:47 10° SE visible
30 Sep 9.0 13:05:09 34° S 13:05:09 34° S 13:10:04 10° S visible
30 Sep 9.5 14:57:24 16° SW 14:57:24 16° SW 14:59:26 10° SW visible
01 Oct 9.8 11:32:06 15° SE 11:32:06 15° SE 11:36:11 10° SSE visible
01 Oct 8.9 13:24:20 36° S 13:24:20 36° S 13:29:19 10° S visible
01 Oct 9.6 15:16:35 12° SW 15:16:35 12° SW 15:17:33 10° SW visible
02 Oct 9.6 11:51:17 21° SE 11:51:17 21° SE 11:56:20 10° SSE visible
02 Oct 8.9 13:43:31 36° SSW 13:43:31 36° SSW 13:48:26 10° SSW visible
03 Oct 9.4 12:10:28 27° SE 12:10:28 27° SE 12:16:06 10° S visible
03 Oct 8.9 14:02:43 33° SSW 14:02:43 33° SSW 14:07:26 10° SSW visible
04 Oct 9.1 12:29:39 33° SE 12:29:39 33° SE 12:35:40 10° S visible
04 Oct 9.0 14:21:54 28° SW 14:21:54 28° SW 14:26:18 10° SSW visible
05 Oct 8.9 12:48:51 40° SSE 12:48:51 40° SSE 12:55:05 10° S visible
05 Oct 9.2 14:41:06 23° SW 14:41:06 23° SW 14:44:59 10° SSW visible
06 Oct 9.9 11:15:48 13° ESE 11:16:44 14° SE 11:20:39 10° SSE visible
06 Oct 8.7 13:08:03 45° S 13:08:03 45° S 13:14:23 10° S visible
06 Oct 9.4 15:00:18 18° SW 15:00:18 18° SW 15:03:24 10° SW visible
07 Oct 9.7 11:35:00 19° SE 11:35:15 19° SE 11:41:03 10° SSE visible
07 Oct 8.6 13:27:15 47° S 13:27:15 47° S 13:33:34 10° SSW visible
07 Oct 9.6 15:19:30 14° WSW 15:19:30 14° WSW 15:21:22 10° SW visible
08 Oct 9.4 11:54:12 25° SE 11:54:12 25° SE 12:00:56 10° S visible
08 Oct 8.6 13:46:27 45° SSW 13:46:27 45° SSW 13:52:39 10° SSW visible
09 Oct 9.2 12:13:25 32° SE 12:13:25 32° SE 12:20:35 10° S visible
09 Oct 8.7 14:05:40 39° SW 14:05:40 39° SW 14:11:36 10° SSW visible
